Flag for Germany Weather past 2 weeks in Erding, Bavaria, Germany

Now
45 °F

Quite cool.


Feels Like: 40 °F
Forecast: 41 / 57 °F
Wind: 9 mph from West

Location: Erding Airport

Current Time: Sep 23, 2014 at 1:02:26 AM

Latest Report: Sep 23, 2014 at 12:20 AM


Visibility: 5 mi

Pressure: 30.12 "Hg

Humidity: 93%

Dew point: 43 °F

Location of ErdingLocation

Historic Weather in Erding — Graph

°F

Erding temperature yesterday

Maximum temperature yesterday: 55 °F (at 12:20 AM)
Minimum temperature yesterday: 46 °F (at 10:20 PM)
Average temperature yesterday: 52 °F

Past Weeks' High & Low Weather Summary

 TemperatureHumidityPressure
High79 °F (Sep 8, 4:20 PM)100% (Sep 8, 12:20 AM)30.12 "Hg (Sep 8, 12:20 AM)
Low46 °F (Sep 22, 10:20 PM)48% (Sep 8, 4:20 PM)29.92 "Hg (Sep 12, 9:20 AM)
Average59 °F88%30.02 "Hg
* Reported Sep 7 11:20 PM — Sep 22 11:20 PM, Erding, Weather by CustomWeather, © 2014

Note: Actual official high and low records may vary slightly from our data, if they occured in-between our weather recording intervals... More about our weather records

Advertising

Erding weather history for previous 24 hours

 ConditionsComfort  
Time TempWeatherWind HumidityBarometerVisibility
11:20 PM
Sep 22
46 °FCool.9 mph87%30.12 "Hg5 mi
10:20 PM46 °FCool.9 mph87%30.12 "Hg5 mi
9:20 PM48 °FCool.9 mph87%30.09 "Hg4 mi
8:20 PM48 °FCool.14 mph87%30.07 "Hg5 mi
7:20 PM50 °FCool.14 mph71%30.04 "Hg6 mi
6:20 PM52 °FCool.16 mph72%30.04 "Hg5 mi
5:20 PM54 °FCool.12 mph72%30.01 "Hg6 mi
4:20 PM52 °FScattered clouds.8 mph82%30.01 "HgN/A
3:20 PM54 °FBroken clouds.13 mph67%30.01 "HgN/A
2:20 PM54 °FPartly sunny.13 mph77%30.01 "HgN/A
1:20 PM54 °FPartly sunny.16 mph72%30.04 "HgN/A
12:20 PM54 °FScattered clouds.15 mph82%30.07 "HgN/A
11:20 AM55 °FScattered clouds.16 mph77%30.07 "HgN/A
10:20 AM54 °FScattered clouds.10 mph88%30.07 "HgN/A
9:20 AM52 °FPartly sunny.9 mph88%30.07 "HgN/A
8:20 AM50 °FScattered clouds.8 mph94%30.07 "HgN/A
7:20 AM50 °FPassing clouds.9 mph100%30.07 "HgN/A
6:20 AM50 °FCool.8 mph94%30.04 "Hg4 mi
5:20 AM52 °FCool.8 mph94%30.04 "Hg4 mi
4:20 AM54 °FCool.7 mph94%30.04 "Hg4 mi
3:20 AM54 °FCool.10 mph94%30.04 "Hg4 mi
2:20 AM54 °FCool.9 mph100%30.04 "Hg4 mi
1:20 AM54 °FCool.9 mph100%30.01 "Hg4 mi
Weather by CustomWeather, © 2014

See weather overviewHow to use our weather pages